Hourly Weather Mullakaevo

Today, 20 September, Monday

Time Temperature Precipitation Wind Pressure Humidity
00:00 -2°C° 0 mm 2 mps 718 mmHg 87%
01:00 -2°C° 0 mm 2 mps 718 mmHg 88%
02:00 -2°C° 0 mm 2 mps 719 mmHg 89%
03:00 -3°C° 0 mm 2 mps 719 mmHg 90%
04:00 -3°C° 0 mm 2 mps 719 mmHg 91%
05:00 -3°C° 0 mm 2 mps 719 mmHg 88%
06:00 -2°C° 0 mm 2 mps 719 mmHg 85%
07:00 0°C° 0 mm 1 mps 720 mmHg 83%
08:00 +1°C° 0 mm 2 mps 720 mmHg 71%
09:00 +3°C° 0 mm 3 mps 720 mmHg 60%
10:00 +5°C° 0 mm 3 mps 720 mmHg 49%
11:00 +7°C° 0 mm 3 mps 720 mmHg 44%
12:00 +8°C° 0 mm 3 mps 720 mmHg 40%
13:00 +10°C° 0 mm 3 mps 720 mmHg 35%
14:00 +10°C° 0 mm 2 mps 720 mmHg 35%
15:00 +10°C° 0 mm 2 mps 720 mmHg 35%
16:00 +10°C° 0 mm 2 mps 720 mmHg 34%
17:00 +8°C° 0 mm 2 mps 720 mmHg 43%
18:00 +6°C° 0 mm 2 mps 720 mmHg 51%
19:00 +3°C° 0 mm 2 mps 720 mmHg 59%
20:00 +3°C° 0 mm 2 mps 721 mmHg 61%
21:00 +2°C° 0 mm 2 mps 721 mmHg 63%
22:00 +1°C° 0 mm 2 mps 722 mmHg 66%
23:00 +1°C° 0 mm 2 mps 722 mmHg 68%

Tomorrow, 21 September, Tuesday

Time Temperature Precipitation Wind Pressure Humidity
00:00 +1°C° 0 mm 2 mps 722 mmHg 71%
01:00 0°C° 0 mm 3 mps 722 mmHg 73%
02:00 +1°C° 0 mm 2 mps 722 mmHg 74%
03:00 +1°C° 0 mm 2 mps 722 mmHg 75%
04:00 +1°C° 0 mm 2 mps 722 mmHg 76%
05:00 +1°C° 0 mm 2 mps 722 mmHg 75%
06:00 +1°C° 0 mm 2 mps 723 mmHg 74%
07:00 +1°C° 0 mm 2 mps 723 mmHg 73%
08:00 +2°C° 0 mm 2 mps 723 mmHg 67%
09:00 +4°C° 0 mm 2 mps 723 mmHg 61%
10:00 +4°C° 0 mm 3 mps 723 mmHg 55%
11:00 +6°C° 0 mm 2 mps 722 mmHg 51%
12:00 +7°C° 0 mm 2 mps 722 mmHg 48%
13:00 +8°C° 0 mm 2 mps 722 mmHg 45%
14:00 +8°C° 0 mm 2 mps 722 mmHg 44%
15:00 +8°C° 0 mm 2 mps 721 mmHg 43%
16:00 +9°C° 0 mm 2 mps 721 mmHg 42%
17:00 +8°C° 0 mm 2 mps 721 mmHg 46%
18:00 +7°C° 0 mm 1 mps 721 mmHg 50%
19:00 +6°C° 0 mm 1 mps 720 mmHg 54%
20:00 +6°C° 0 mm 1 mps 720 mmHg 55%
21:00 +5°C° 0 mm 1 mps 720 mmHg 56%
22:00 +5°C° 0 mm 1 mps 720 mmHg 57%
23:00 +5°C° 0 mm 1 mps 720 mmHg 59%

Day after tomorrow, 22 September, Wednesday

Time Temperature Precipitation Wind Pressure Humidity
00:00 +4°C° 0 mm 1 mps 720 mmHg 60%
01:00 +4°C° 0 mm 1 mps 720 mmHg 61%
02:00 +4°C° 0 mm 1 mps 720 mmHg 62%
03:00 +4°C° 0 mm 1 mps 720 mmHg 63%
04:00 +4°C° 0 mm 1 mps 719 mmHg 64%
05:00 +4°C° 0 mm 1 mps 719 mmHg 63%
06:00 +5°C° 0 mm 1 mps 720 mmHg 61%
07:00 +6°C° 0 mm 1 mps 720 mmHg 59%
08:00 +7°C° 0 mm 1 mps 720 mmHg 55%
09:00 +9°C° 0 mm 1 mps 720 mmHg 51%
10:00 +10°C° 0 mm 1 mps 720 mmHg 46%
11:00 +10°C° 0 mm 2 mps 720 mmHg 44%
12:00 +12°C° 0 mm 2 mps 719 mmHg 43%
13:00 +12°C° 0 mm 2 mps 719 mmHg 41%
14:00 +13°C° 0 mm 2 mps 719 mmHg 41%
15:00 +13°C° 0 mm 2 mps 719 mmHg 41%
16:00 +13°C° 0 mm 2 mps 719 mmHg 40%
17:00 +10°C° 0 mm 2 mps 719 mmHg 45%
18:00 +9°C° 0 mm 1 mps 720 mmHg 49%
19:00 +7°C° 0 mm 1 mps 720 mmHg 54%
20:00 +8°C° 0 mm 1 mps 720 mmHg 53%
21:00 +8°C° 0 mm 1 mps 720 mmHg 51%
22:00 +7°C° 0 mm 0 mps 720 mmHg 50%
23:00 +7°C° 0 mm 0 mps 720 mmHg 52%

23 September, Thursday

Time Temperature Precipitation Wind Pressure Humidity
00:00 +8°C° 0 mm 1 mps 720 mmHg 54%
01:00 +8°C° 0 mm 1 mps 720 mmHg 56%
02:00 +8°C° 0 mm 1 mps 720 mmHg 58%
03:00 +7°C° 0 mm 1 mps 721 mmHg 60%
04:00 +7°C° 0 mm 1 mps 721 mmHg 63%
05:00 +7°C° 0 mm 1 mps 721 mmHg 62%
06:00 +7°C° 0 mm 1 mps 722 mmHg 61%
07:00 +7°C° 0 mm 1 mps 722 mmHg 60%
08:00 +7°C° 0 mm 2 mps 722 mmHg 55%
09:00 +9°C° 0 mm 2 mps 723 mmHg 50%
10:00 +10°C° 0 mm 3 mps 723 mmHg 44%
11:00 +11°C° 0 mm 3 mps 723 mmHg 42%
12:00 +12°C° 0 mm 3 mps 723 mmHg 41%
13:00 +13°C° 0 mm 3 mps 723 mmHg 39%
14:00 +13°C° 0 mm 3 mps 723 mmHg 39%
15:00 +13°C° 0 mm 3 mps 723 mmHg 39%
16:00 +13°C° 0 mm 3 mps 723 mmHg 39%
17:00 +12°C° 0 mm 3 mps 723 mmHg 44%
18:00 +10°C° 0 mm 2 mps 723 mmHg 49%
19:00 +8°C° 0 mm 2 mps 723 mmHg 54%
20:00 +8°C° 0 mm 2 mps 723 mmHg 54%
21:00 +7°C° 0 mm 2 mps 723 mmHg 55%
22:00 +7°C° 0 mm 2 mps 723 mmHg 55%
23:00 +6°C° 0 mm 2 mps 723 mmHg 56%

24 September, Friday

Time Temperature Precipitation Wind Pressure Humidity
00:00 +6°C° 0 mm 2 mps 723 mmHg 56%
01:00 +6°C° 0 mm 2 mps 723 mmHg 57%
02:00 +6°C° 0 mm 2 mps 723 mmHg 59%
03:00 +6°C° 0 mm 2 mps 723 mmHg 62%
04:00 +5°C° 0 mm 2 mps 723 mmHg 64%
05:00 +5°C° 0 mm 2 mps 723 mmHg 64%
06:00 +6°C° 0 mm 2 mps 723 mmHg 64%
07:00 +6°C° 0 mm 2 mps 723 mmHg 64%
08:00 +7°C° 0 mm 3 mps 723 mmHg 59%
09:00 +7°C° 0 mm 4 mps 723 mmHg 53%
10:00 +10°C° 0 mm 4 mps 723 mmHg 47%
11:00 +10°C° 0 mm 5 mps 723 mmHg 44%
12:00 +11°C° 0 mm 6 mps 722 mmHg 40%
13:00 +13°C° 0 mm 6 mps 722 mmHg 36%
14:00 +13°C° 0 mm 6 mps 722 mmHg 35%
15:00 +11°C° 0 mm 6 mps 721 mmHg 34%
16:00 +11°C° 0 mm 6 mps 721 mmHg 33%
17:00 +10°C° 0 mm 5 mps 721 mmHg 34%
18:00 +9°C° 0 mm 5 mps 720 mmHg 35%
19:00 +8°C° 0 mm 4 mps 720 mmHg 36%
20:00 +7°C° 0 mm 4 mps 720 mmHg 37%
21:00 +7°C° 0 mm 4 mps 720 mmHg 38%
22:00 +6°C° 0 mm 4 mps 720 mmHg 39%
23:00 +6°C° 0 mm 4 mps 719 mmHg 40%

25 September, Saturday

Time Temperature Precipitation Wind Pressure Humidity
00:00 +5°C° 0 mm 3 mps 719 mmHg 40%
01:00 +5°C° 0 mm 3 mps 719 mmHg 41%
02:00 +5°C° 0 mm 3 mps 718 mmHg 42%
03:00 +4°C° 0 mm 3 mps 718 mmHg 42%
04:00 +4°C° 0 mm 3 mps 718 mmHg 43%
05:00 +4°C° 0 mm 3 mps 717 mmHg 43%
06:00 +4°C° 0 mm 3 mps 717 mmHg 43%
07:00 +5°C° 0 mm 3 mps 717 mmHg 43%
08:00 +7°C° 0 mm 4 mps 716 mmHg 38%
09:00 +9°C° 0 mm 5 mps 716 mmHg 34%
10:00 +13°C° 0 mm 6 mps 715 mmHg 29%
11:00 +14°C° 0 mm 7 mps 715 mmHg 26%
12:00 +16°C° 0 mm 8 mps 714 mmHg 23%
13:00 +18°C° 0 mm 8 mps 713 mmHg 20%
14:00 +18°C° 0 mm 7 mps 713 mmHg 22%
15:00 +17°C° 0 mm 5 mps 712 mmHg 24%
16:00 +18°C° 0 mm 4 mps 712 mmHg 26%
17:00 +16°C° 0.2 mm 3 mps 712 mmHg 41%
18:00 +14°C° 0.2 mm 2 mps 712 mmHg 55%
19:00 +10°C° 0.2 mm 2 mps 712 mmHg 70%
20:00 +10°C° 0 mm 2 mps 712 mmHg 73%
21:00 +9°C° 0 mm 2 mps 712 mmHg 77%
22:00 +9°C° 0 mm 2 mps 712 mmHg 81%
23:00 +8°C° 0 mm 2 mps 712 mmHg 84%
Show more

We Need Your Consent

Meteoprog and our Service Providers may store and access personal data such as cookies, device identifiers or other similar technologies on your device and process such data to personalise content and ads, as well as provide social media features and to analyse the traffic.

  • Store and/or access information on your device

    Cookies, device identifiers or other information can be stored or accessed on your device for the purposes indicated above.

  • Personalised ads and content, ad and content measurement, audience insights, and products development

    Ads and content can be personalised based on a profile. More data can be added to better personalise ads and content. Ad and content performance can be measured. Insights about the audience who saw the ads and content can be derived. Such data can be used to develop or improve user’s experience, systems and software.

By clicking ‘I Agree’ you will allow the use of indicated cookies, device identifiers, web beacons or other similar technologies. Your settings can be changed in the browser on your device.

For certain purposes, legitimate interests may be relied on, rather than consent. You can read more about this in our Privacy and Cookie Policy.